Вернуться в каталог

STARLINK-36288

АктивенСвязьVLEO
NORAD 69164·PAYLOAD·🇺🇸 United States

Запущен May 21, 2026 с Cape Canaveral Space Force Station

Loading…

Ближайшие Пролёты (ближайшие 24 часа)

TLE

СвежийSource: CelesTrak SupGP

Эпоха: Sep 15, 2026, 04:08 UTC

1 69164C 26111S   26258.17270833 -.00029966  00000+0 -88517-3 0  2584
2 69164  53.1576  90.6054 0001229  91.5885 180.8031 15.34412326    12

Отслеживайте STARLINK-36288 в реальном времени с AllMySat

Download on the App Store